STARLINK-30828, 58671

Orbit data source: Space-Track

STARLINK-30828, 58671 is a payload satellite owned by SpaceX/Seattle (US) in LEO that was launched on Fri, 29 Dec 2023 UTC via an FALCON 9 launch vehicle from the Air Force Eastern Test Range (AFETR). Payload-class satellites include a variety of spacecraft equipped with specific instruments for various scientific and technological missions. These include communications satellites like Starlink; space stations such as the ISS; scientific satellites like the Hubble; Earth observation satellites from companies like Planet Labs, Umbra, and HawkEye 360; GPS; miniature CubeSats for education and research; and military/defense satellites.

Loading next visibility...
Identifier
58671, 2023-211E
Orbit
LEO
Country
Flag of USUS
Related business
Manufacturer
SpaceX/Seattle
Mission
Operational Commercial Communications
Bus & Motor
STARLINK V2M, Unknown motor
Mass
730 kg wet, ~700 kg dry
Launch date (UTC)
2023-12-29 (2 years ago)
Launch vehicle
FALCON 9
Launch site
Air Force Eastern Test Range (AFETR)
Object type
Payload
Rocket body
Debris
Shape & HBR
Box + 2 Pan, 17.7 m
Radar Cross Section
33.884 m², Large (>1 m²)

Expand to show TLE details & history
Last TLE update: 2 days ago

TLE from 2 days ago
0 STARLINK-30828
1 58671U 23211E   26171.21337682  .00000643  00000-0  32895-4 0  9999
2 58671  43.0032 226.3355 0001546 267.9797  92.0878 15.27575937138142
Epoch: 2026-06-20T05:07Z
TLE epoch observation values (Epoch: 2026-06-20T05:07:15.757Z)
Latitude
0.00002°
Longitude
-118.91136°
Altitude
482.876 km
Speed
7.626 km/s
True Right ascension
15h 05m 20s
True Declination
0° 00' 00"
Sunlit
Object was in full shadow at epoch
Visualization orbit readout
Latitude
Unknown
Longitude
Unknown
Altitude
Unknown
Speed
Unknown
Apparent Right ascension
Unknown
Apparent Declination
Unknown
Sunlit
N/A
Visualization observer readout
Local Sidereal Time
21:25:37
Azimuth
Unknown
Elevation
Unknown
Doppler factor
Unknown
Orbital elements
Apogee altitude
486.067 km
Perigee altitude
483.945 km
Semi-major axis
6,863.143 km
Eccentricity
0.00015
Inclination
43.0032°
RAAN
226.3355°
Arg. of periapsis
267.9797°
True anomaly
92.1055°
Mean anomaly
92.0878°
Eccentric anomaly
92.09665°
Mean motion
3.81732 °/min
Orbital period
94.31 mins
BSTAR
0.000032895
Loading maneuver chart data...
Computing Atmospheric mass density...
Loading historical data...
Loading historical data...
Loading historical data...
Loading historical data...
Loading historical data...
Loading historical data...
Loading historical data...

Documentation

Showing up to 5 results
|